Weather Service Report


543 
ASUS45 KTFX 281819
RWRMT 
MONTANA HOURLY WEATHER ROUNDUP
NATIONAL WEATHER SERVICE GREAT FALLS MT
1219 PM MDT THU AUG 28 2014

NOTE: "FAIR" INDICATES FEW OR NO CLOUDS BELOW 12000 FEET WITH NO
SIGNIFICANT WEATHER AND/OR OBSTRUCTIONS TO VISIBILITY.

* THESE STATIONS ARE NOT UNDER NWS QUALITY CONTROL. THEY DO NOT
   REPORT WEATHER SUCH AS PRECIPITATION OR FOG.

MTZ001>007-043-281900-
WEST OF THE DIVIDE
CITY           SKY/WX    TMP DP  RH WIND       PRES   REMARKS
KALISPELL      PTCLDY    79  50  36 S10       29.96F 
MISSOULA       SUNNY     72  46  40 VRB3      30.05F 
BUTTE          SUNNY     73  43  34 N/A       30.16F 
MULLAN PASS    PTCLDY    61  46  58 VRB7      30.18R 
* LINCOLN      N/A       70  48  46 W2         N/A   
* LOOKOUT PASS N/A       66  49  54 SE12G19    N/A   
* POLSON       N/A       81  47  30 SW4G12     N/A   
* RONAN APT    SUNNY     81  46  29 SW6        N/A   
* SEELEY LAKE  N/A       75  48  39 SW5        N/A   
* THOMP F APT  SUNNY     66  46  49 SE6G13     N/A   
$$

MTZ008-052>055-281900-
SOUTHWEST MONTANA
CITY           SKY/WX    TMP DP  RH WIND       PRES   REMARKS
BOZEMAN        SUNNY     75  45  34 CALM      30.10F 
DILLON         SUNNY     73  45  37 SW5       30.15F 
W YELLOWSTONE  SUNNY     68  45  44 S12       30.28F 
* THREE FORKS  SUNNY     73  73 100 N/A        N/A   
* BOULDER HILL N/A       69  41  36 SW10G16    N/A   
* MONIDA PASS  N/A       65  44  47 SE15G20    N/A   
* RAYNOLDS PAS N/A       64  43  47 SE17G24    N/A   
* WHITEHALL    N/A       75  47  37 SW8        N/A   
* WISE RIVER   N/A       64  45  50 NW3        N/A   
$$

MTZ009>010-012-014-046-048-049-054-281900-
EAST SLOPES AND CENTRAL MONTANA
CITY           SKY/WX    TMP DP  RH WIND       PRES   REMARKS
CUT BANK       PTSUNNY   66  52  61 N7        30.01F 
GREAT FALLS    PTCLDY    82  45  27 SW17      29.99F 
HELENA         SUNNY     75  50  42 N5        30.05F 
MALMSTROM AFB  PTCLDY    81  45  28 W12G23    30.00F 
* CONRAD       CLOUDY    72  55  55 N/A        N/A   
* EAST GLACIER N/A       73  45  37 W15G23     N/A   
* MONARCH      N/A       72  38  29 NW16G23    N/A   
* PENDROY      N/A       66  52  61 NE7        N/A   
* ROGERS PASS  N/A       70  42  36 SE12G26    N/A   
* SAINT MARY   N/A       59  52  78 N5G10      N/A   
* SWEET GRASS  N/A       60  56  87 N14        N/A   
* WHITE SULPH  N/A       75  45  34 W6G11      N/A   
$$

MTZ011-013-016-021-035-040-045-047-050-051-281900-
NORTH CENTRAL MONTANA
CITY           SKY/WX    TMP DP  RH WIND       PRES   REMARKS
HAVRE          PTCLDY    79  50  36 NW9       29.93F 
LEWISTOWN      PTCLDY    81  43  26 NW9       30.03F 
* CHINOOK      PTCLDY    77  54  45 W9        29.91F 
* FORT BENTON  PTCLDY    84  43  24 W13G18    29.94F 
* CHESTER      N/A       75  47  37 NW7G13     N/A   
* DENTON       N/A       82  42  24 SW11       N/A   
* GEYSER       N/A       79  41  26 W19G27     N/A   
* JUDITH GAP   N/A       78  40  26 NW15G24    N/A   
* LOMA         N/A       81  49  33 SW7G12     N/A   
$$

MTZ017>020-022>027-061-062-281900-
NORTHEAST MONTANA
CITY           SKY/WX    TMP DP  RH WIND       PRES   REMARKS
GLASGOW        SUNNY     82  55  40 NW8       29.88F HI  81 
GLENDIVE       SUNNY     81  63  54 SE8       29.91F HI  82 
JORDAN         SUNNY     82  54  38 W10       29.92S 
SIDNEY         SUNNY     81  63  54 S7        29.88F HI  82 
WOLF POINT     SUNNY     82  57  43 SW9       29.86F HI  82 
* BEAVER HILL  N/A       81  57  44 SW4G9      N/A   HI  81 
* CIRCLE       N/A       80  55  42 W7         N/A   HI  80 
* LINDSAY DVD  N/A       83  50  32 S8G15      N/A   
* NAVAJO       N/A       83  53  36 W12G18     N/A   
$$

MTZ028>042-056>058-281900-
SOUTHCENTRAL AND SOUTHEAST MONTANA
CITY           SKY/WX    TMP DP  RH WIND       PRES   REMARKS
BAKER          SUNNY     81  54  39 CALM      29.96F 
BILLINGS       SUNNY     81  48  32 SW12      30.02F 
LIVINGSTON     SUNNY     82  39  22 SW14      30.09F 
MILES CITY     SUNNY     82  54  38 SW6       29.94F 
* LAUREL APT   SUNNY     81  48  32 S9         N/A   
* ROUNDUP APT  SUNNY     82  43  25 NW5        N/A   
* ALZADA       N/A       79  55  44 SW3        N/A   
* HYSHAM       N/A       79  46  31 W10G16     N/A   
* LAME DEER    N/A       77  51  40 SW8G14     N/A   
* REED POINT   N/A       83  43  24 W19G24     N/A   
* ROSCOE HILL  N/A       78  30  17 NW9G14     N/A   
$$

REGIONAL REPORTS...DAKOTAS
CITY           SKY/WX    TMP DP  RH WIND       PRES   REMARKS
WILLISTON      SUNNY     82  59  46 S8        29.87F HI  82 
DICKINSON      SUNNY     81  54  39 SW12      29.91F 
BEACH          N/A       82  50  33 CALM      29.93F 
CROSBY         SUNNY     84  57  40 S10       29.84F HI  83 
TIOGA          SUNNY     84  55  37 S7        29.90F 
WATFORD CITY   SUNNY     84  52  33 CALM      29.86F 
BISMARCK       CLOUDY    72  66  81 S6        29.93S 
GRAND FORKS    CLOUDY    75  64  69 S15       29.92F 
FARGO          CLOUDY    70  61  73 SE14      29.95F 
BUFFALO SD     PTCLDY    81  57  44 S5        29.90F HI  81 
RAPID CITY     CLOUDY    73  59  62 N5        30.00F 
$$

REGIONAL REPORTS...WYOMING/IDAHO/WASHINGTON
CITY           SKY/WX    TMP DP  RH WIND       PRES   REMARKS
GILLETTE       SUNNY     79  50  36 N12       30.05F 
SHERIDAN       SUNNY     82  41  23 VRB7G18   30.05F 
CODY           SUNNY     79  45  30 CALM      30.13F 
YELLOWSTONE LA SUNNY     61  46  58 E7        30.38F 
SALMON         SUNNY     68  46  45 N3        30.11F 
MULLAN PASS    PTCLDY    61  46  58 VRB7      30.18S 
SAND POINT     PTCLDY    73  54  51 W6        29.98S 
SPOKANE        PTSUNNY   75  48  39 SW17G25   30.00S 
$$

REGIONAL REPORTS...ALBERTA
CITY           SKY/WX    TMP DP  RH WIND       PRES   REMARKS
CALGARY        CLOUDY    54  48  80 N10       30.05R 
LETHBRIDGE     PTCLDY    63  52  68 VRB6      29.99F 
MEDICINE HAT   PTSUNNY   68  55  63 CALM      29.95S 
EDMONTON       PTSUNNY   59  46  62 NW7       30.00R 
WATERTON GATE  N/A       63  50  63 NE6        N/A   
CARDSTON       N/A       61  54  78 NE2        N/A   
MILK RIVER     N/A       64  54  70 N8         N/A   
$$

REGIONAL REPORTS...SASKATCHEWAN
CITY           SKY/WX    TMP DP  RH WIND       PRES   REMARKS
SWIFT CURRENT  PTCLDY    72  54  53 SW9       29.85R 
MOOSE JAW      SUNNY     77  61  58 CALM      29.82R 
REGINA         PTSUNNY   75  63  66 S6        29.80F 
VAL MARIE      N/A       82  50  33 W20G28     N/A   
ASSINIBOIA     N/A       81  52  37 W10        N/A   
CORONACH       N/A       86  50  29 W12G17     N/A   

$$


Return to Home page


Western Regional Climate Center, wrcc@dri.edu